FW4751 Weather Reports


time (UTC)temp
C
wind
direction
speed
KPH
gust
KPH
rain 1hr
cm
rain 24hr
cm
rain mn
cm
humidity
%
barometer
mb
20260906002508 25 338 3.2 12.9 0.00 0.00 0.00 39 1013.7
20260906002008 25 338 3.2 14.5 0.00 0.00 0.00 39 1013.8
20260906001503 26 338 3.2 11.3 0.00 0.00 0.00 39 1013.7
20260906001003 26 338 3.2 9.7 0.00 0.00 0.00 39 1013.6
20260906000508 26 315 3.2 8.0 0.00 0.00 0.00 39 1013.7
20260906000003 26 315 3.2 9.7 0.00 0.00 0.00 39 1013.7
20260905235503 25 315 3.2 11.3 0.00 0.00 0.00 41 1013.6
20260905235003 25 23 3.2 8.0 0.00 0.00 0.00 46 1013.6
20260905234523 24 338 3.2 9.7 0.00 0.00 0.00 48 1013.6
20260905234008 24 45 4.8 12.9 0.00 0.00 0.00 48 1013.6
20260905233525 24 45 4.8 11.3 0.00 0.00 0.00 48 1013.7
20260905233005 24 45 4.8 12.9 0.00 0.00 0.00 48 1013.7
20260905232505 24 23 4.8 12.9 0.00 0.00 0.00 47 1013.6
20260905232010 24 0 3.2 9.7 0.00 0.00 0.00 46 1013.6
20260905231505 24 45 4.8 12.9 0.00 0.00 0.00 46 1013.6
20260905231005 24 45 4.8 12.9 0.00 0.00 0.00 46 1013.6
20260905230505 25 45 4.8 12.9 0.00 0.00 0.00 45 1013.7
20260905230003 25 23 4.8 14.5 0.00 0.00 0.00 45 1013.8
20260905225510 25 23 4.8 16.1 0.00 0.00 0.00 44 1013.9
20260905225010 25 23 4.8 14.5 0.00 0.00 0.00 44 1013.9
20260905224510 25 0 4.8 12.9 0.00 0.00 0.00 44 1014.1
20260905224009 25 23 4.8 12.9 0.00 0.00 0.00 45 1013.9
20260905223525 25 23 4.8 12.9 0.00 0.00 0.00 46 1013.9
20260905223009 25 45 6.4 16.1 0.00 0.00 0.00 48 1013.9
20260905222525 24 45 4.8 11.3 0.00 0.00 0.00 50 1013.9
20260905222010 24 45 4.8 12.9 0.00 0.00 0.00 52 1013.9
20260905221529 23 45 4.8 12.9 0.00 0.00 0.00 53 1014.0
20260905221025 23 45 4.8 11.3 0.00 0.00 0.00 54 1014.0
20260905220505 23 23 6.4 12.9 0.00 0.00 0.00 53 1014.0
20260905220009 23 23 6.4 16.1 0.00 0.00 0.00 51 1014.1
20260905215509 23 23 4.8 12.9 0.00 0.00 0.00 51 1014.2
20260905215009 23 23 4.8 12.9 0.00 0.00 0.00 53 1014.2
20260905214509 22 338 4.8 12.9 0.00 0.00 0.00 55 1014.3
20260905214010 22 23 6.4 16.1 0.00 0.00 0.00 55 1014.4
20260905213509 22 45 4.8 12.9 0.00 0.00 0.00 52 1014.3
20260905213025 22 338 4.8 11.3 0.00 0.00 0.00 49 1014.3
20260905212510 23 23 4.8 11.3 0.00 0.00 0.00 49 1014.4
20260905212009 23 45 3.2 8.0 0.00 0.00 0.00 51 1014.3
20260905211505 23 338 3.2 11.3 0.00 0.00 0.00 49 1014.5
20260905211005 23 315 3.2 9.7 0.00 0.00 0.00 49 1014.4
20260905210504 23 0 4.8 12.9 0.00 0.00 0.00 49 1014.4
20260905210010 23 45 3.2 11.3 0.00 0.00 0.00 49 1014.5
20260905205504 23 23 4.8 12.9 0.00 0.00 0.00 50 1014.4
20260905205009 23 0 4.8 11.3 0.00 0.00 0.00 50 1014.5
20260905204510 23 45 3.2 8.0 0.00 0.00 0.00 57 1014.4
20260905204010 22 0 3.2 9.7 0.00 0.00 0.00 56 1014.4
20260905203505 22 338 3.2 11.3 0.00 0.00 0.00 54 1014.4
20260905203029 22 45 4.8 11.3 0.00 0.00 0.00 53 1014.5
20260905202505 23 45 4.8 11.3 0.00 0.00 0.00 52 1014.4
20260905202009 23 45 3.2 9.7 0.00 0.00 0.00 54 1014.5
20260905201505 23 23 4.8 9.7 0.00 0.00 0.00 53 1014.5
20260905201004 23 45 3.2 11.3 0.00 0.00 0.00 55 1014.5
20260905200509 23 45 3.2 11.3 0.00 0.00 0.00 57 1014.5
20260905200009 22 45 3.2 8.0 0.00 0.00 0.00 55 1014.5
20260905195510 22 45 3.2 8.0 0.00 0.00 0.00 56 1014.5
20260905195010 22 45 3.2 8.0 0.00 0.00 0.00 56 1014.8
20260905194504 23 23 3.2 8.0 0.00 0.00 0.00 57 1014.9
20260905194010 23 45 3.2 6.4 0.00 0.00 0.00 57 1014.9
20260905193504 23 45 3.2 6.4 0.00 0.00 0.00 56 1015.0
20260905193005 23 45 3.2 6.4 0.00 0.00 0.00 57 1015.0
20260905192529 23 0 3.2 8.0 0.00 0.00 0.00 57 1015.1
20260905192009 23 45 3.2 9.7 0.00 0.00 0.00 58 1015.1
20260905191509 23 23 3.2 9.7 0.00 0.00 0.00 59 1015.1
20260905191010 23 338 3.2 8.0 0.00 0.00 0.00 57 1015.2
20260905190550 23 45 3.2 6.4 0.00 0.00 0.00 57 1015.2
20260905190009 23 338 1.6 6.4 0.00 0.00 0.00 57 1015.1
20260905185509 22 45 1.6 4.8 0.00 0.00 0.00 57 1015.2
20260905185004 22 45 1.6 6.4 0.00 0.00 0.00 56 1015.3
20260905184504 22 45 1.6 6.4 0.00 0.00 0.00 57 1015.4
20260905184009 22 45 1.6 6.4 0.00 0.00 0.00 57 1015.4
20260905183509 22 45 3.2 8.0 0.00 0.00 0.00 57 1015.4
20260905183025 22 45 1.6 6.4 0.00 0.00 0.00 56 1015.4
20260905182504 22 45 1.6 4.8 0.00 0.00 0.00 58 1015.2
20260905182009 22 23 1.6 4.8 0.00 0.00 0.00 58 1015.4
20260905181509 22 45 3.2 6.4 0.00 0.00 0.00 60 1015.3
20260905181009 22 113 1.6 4.8 0.00 0.00 0.00 61 1015.3
20260905180504 22 68 1.6 4.8 0.00 0.00 0.00 61 1015.3
20260905180010 22 90 1.6 4.8 0.00 0.00 0.00 62 1015.4
20260905175524 22 45 1.6 3.2 0.00 0.00 0.00 63 1015.5
20260905175004 21 135 1.6 3.2 0.00 0.00 0.00 63 1015.3
20260905174504 21 113 1.6 6.4 0.00 0.00 0.00 64 1015.3
20260905174004 21 135 1.6 6.4 0.00 0.00 0.00 65 1015.4
20260905173509 21 45 1.6 3.2 0.00 0.00 0.00 66 1015.3
20260905173009 20 90 1.6 3.2 0.00 0.00 0.00 66 1015.4
20260905172509 20 45 1.6 4.8 0.00 0.00 0.00 67 1015.4
20260905172010 20 45 1.6 4.8 0.00 0.00 0.00 67 1015.3
20260905171524 20 45 1.6 4.8 0.00 0.00 0.00 67 1015.3
20260905171024 20 45 1.6 6.4 0.00 0.00 0.00 67 1015.2
20260905170504 20 135 1.6 6.4 0.00 0.00 0.00 68 1015.1
20260905170004 20 45 1.6 4.8 0.00 0.00 0.00 69 1015.1
20260905165504 20 45 1.6 3.2 0.00 0.00 0.00 68 1015.3
20260905165004 20 45 1.6 4.8 0.00 0.00 0.00 68 1015.2
20260905164504 20 135 1.6 4.8 0.00 0.00 0.00 68 1015.2
20260905164009 20 0.0 3.2 0.00 0.00 0.00 69 1015.1
20260905163504 19 135 1.6 4.8 0.00 0.00 0.00 70 1015.2
20260905163004 19 135 1.6 4.8 0.00 0.00 0.00 71 1015.1
20260905162504 18 135 1.6 3.2 0.00 0.00 0.00 73 1015.2
20260905162004 18 0.0 1.6 0.00 0.00 0.00 74 1015.2
20260905161504 18 270 1.6 1.6 0.00 0.00 0.00 75 1015.3
20260905161024 17 0 1.6 3.2 0.00 0.00 0.00 77 1015.3
20260905160504 17 270 1.6 3.2 0.00 0.00 0.00 78 1015.3
20260905160004 17 135 1.6 3.2 0.00 0.00 0.00 80 1015.2
20260905155504 16 113 1.6 3.2 0.00 0.00 0.00 81 1015.2
20260905155024 16 315 1.6 3.2 0.00 0.00 0.00 82 1015.1
20260905154504 15 270 1.6 3.2 0.00 0.00 0.00 84 1015.3
20260905154004 15 270 1.6 1.6 0.00 0.00 0.00 85 1015.2
20260905153504 14 0.0 3.2 0.00 0.00 0.00 87 1015.1
20260905153029 13 0.0 1.6 0.00 0.00 0.00 87 1015.2
20260905152504 13 0.0 3.2 0.00 0.00 0.00 88 1015.2
20260905152004 12 0.0 1.6 0.00 0.00 0.00 88 1015.2
20260905151509 12 0.0 1.6 0.00 0.00 0.00 88 1015.2
20260905151024 12 0.0 3.2 0.00 0.00 0.00 89 1015.2
20260905150504 11 0.0 1.6 0.00 0.00 0.00 89 1015.0
20260905150029 11 0.0 1.6 0.00 0.00 0.00 89 1015.1
20260905145506 11 0.0 1.6 0.00 0.00 0.00 89 1015.0
20260905145004 10 0.0 1.6 0.00 0.00 0.00 89 1015.0
20260905144509 10 0.0 1.6 0.00 0.00 0.00 89 1015.0
20260905144009 10 0.0 1.6 0.00 0.00 0.00 88 1014.9
20260905143504 10 0.0 1.6 0.00 0.00 0.00 88 1015.1
20260905143008 10 0.0 1.6 0.00 0.00 0.00 87 1015.1
20260905142504 10 0.0 1.6 0.00 0.00 0.00 87 1015.0
20260905142004 10 0.0 1.6 0.00 0.00 0.00 87 1015.1
20260905141508 10 0.0 1.6 0.00 0.00 0.00 87 1015.0
20260905141009 10 0.0 1.6 0.00 0.00 0.00 87 1015.0
20260905140508 9 0.0 1.6 0.00 0.00 0.00 86 1014.9
20260905140004 10 0.0 1.6 0.00 0.00 0.00 86 1014.9
20260905135504 9 0.0 1.6 0.00 0.00 0.00 86 1014.9
20260905135003 9 0.0 1.6 0.00 0.00 0.00 86 1014.9
20260905134508 9 0.0 1.6 0.00 0.00 0.00 86 1014.9
20260905134003 9 0.0 1.6 0.00 0.00 0.00 86 1014.7
20260905133504 9 0.0 0.0 0.00 0.00 0.00 86 1014.7
20260905133009 9 0.0 1.6 0.00 0.00 0.00 85 1014.6
20260905132504 9 0.0 1.6 0.00 0.00 0.00 85 1014.7
20260905132008 9 0.0 1.6 0.00 0.00 0.00 85 1014.7
20260905131503 9 0.0 1.6 0.00 0.00 0.00 85 1014.8
20260905131003 10 0.0 1.6 0.00 0.00 0.00 85 1014.8
20260905130503 10 0.0 1.6 0.00 0.00 0.00 84 1014.8
20260905130004 10 0.0 1.6 0.00 0.00 0.00 84 1014.8
20260905125504 10 0.0 1.6 0.00 0.00 0.00 84 1014.8
20260905125004 10 0.0 1.6 0.00 0.00 0.00 84 1014.8
20260905124524 10 0.0 1.6 0.00 0.00 0.00 84 1014.9
20260905124008 10 0.0 1.6 0.00 0.00 0.00 84 1014.9
20260905123503 10 0.0 1.6 0.00 0.00 0.00 84 1014.9
20260905123008 10 0.0 1.6 0.00 0.00 0.00 84 1014.8
20260905122508 10 0.0 1.6 0.00 0.00 0.00 84 1014.8
20260905122008 10 0.0 1.6 0.00 0.00 0.00 84 1014.8
20260905121509 10 0.0 1.6 0.00 0.00 0.00 84 1014.9
20260905121008 10 0.0 1.6 0.00 0.00 0.00 83 1014.8
20260905120508 10 0.0 1.6 0.00 0.00 0.00 83 1014.8
20260905120009 10 0.0 1.6 0.00 0.00 0.00 83 1014.9
20260905115508 10 0.0 1.6 0.00 0.00 0.00 83 1014.8
20260905115003 10 0.0 1.6 0.00 0.00 0.00 83 1014.8
20260905114528 10 0.0 1.6 0.00 0.00 0.00 83 1014.9
20260905114009 10 0.0 1.6 0.00 0.00 0.00 83 1014.9
20260905113504 10 315 1.6 1.6 0.00 0.00 0.00 83 1014.9
20260905113008 10 0.0 1.6 0.00 0.00 0.00 83 1014.9
20260905112508 10 0.0 1.6 0.00 0.00 0.00 83 1015.0
20260905112008 10 0.0 1.6 0.00 0.00 0.00 83 1015.1
20260905111503 10 0.0 1.6 0.00 0.00 0.00 83 1015.0
20260905111008 10 0.0 1.6 0.00 0.00 0.00 83 1015.1
20260905110503 10 0.0 1.6 0.00 0.00 0.00 83 1015.1
20260905110008 10 0.0 1.6 0.00 0.00 0.00 83 1015.1
20260905105508 10 0.0 1.6 0.00 0.00 0.00 82 1015.1
20260905105008 10 0.0 1.6 0.00 0.00 0.00 82 1015.2
20260905104508 10 0.0 1.6 0.00 0.00 0.00 82 1015.1
20260905104008 10 0.0 1.6 0.00 0.00 0.00 82 1015.2
20260905103503 10 0.0 1.6 0.00 0.00 0.00 82 1015.1
20260905103003 10 0.0 1.6 0.00 0.00 0.00 82 1015.1
20260905102503 10 0.0 1.6 0.00 0.00 0.00 82 1015.1
20260905102003 10 0.0 1.6 0.00 0.00 0.00 82 1015.3
20260905101508 10 0.0 1.6 0.00 0.00 0.00 82 1015.3
20260905101003 10 0.0 1.6 0.00 0.00 0.00 82 1015.4
20260905100523 10 0.0 1.6 0.00 0.00 0.00 82 1015.3
20260905100028 10 0.0 1.6 0.00 0.00 0.00 82 1015.4
20260905095523 10 0.0 1.6 0.00 0.00 0.00 82 1015.4
20260905095008 10 0.0 1.6 0.00 0.00 0.00 81 1015.3
20260905094508 10 0.0 1.6 0.00 0.00 0.00 81 1015.3
20260905094004 10 0.0 1.6 0.00 0.00 0.00 81 1015.2
20260905093503 11 0.0 1.6 0.00 0.00 0.00 81 1015.3
20260905093003 11 0.0 1.6 0.00 0.00 0.00 81 1015.4
20260905092509 11 0.0 1.6 0.00 0.00 0.00 81 1015.4
20260905092008 11 0.0 1.6 0.00 0.00 0.00 81 1015.3
20260905091503 11 0.0 1.6 0.00 0.00 0.00 81 1015.4
20260905091010 11 0.0 1.6 0.00 0.00 0.00 81 1015.4
20260905090505 11 0.0 1.6 0.00 0.00 0.00 81 1015.4
20260905090005 11 0.0 1.6 0.00 0.00 0.00 81 1015.5
20260905085505 11 0.0 1.6 0.00 0.00 0.00 81 1015.4
20260905085010 11 0.0 1.6 0.00 0.00 0.00 81 1015.4
20260905084505 11 0.0 1.6 0.00 0.00 0.00 81 1015.5
20260905084005 11 0.0 1.6 0.00 0.00 0.00 80 1015.5
20260905083506 11 0.0 1.6 0.00 0.00 0.00 80 1015.5
20260905083010 11 0.0 1.6 0.00 0.00 0.00 80 1015.6
20260905082510 11 0.0 1.6 0.00 0.00 0.00 80 1015.6
20260905082009 11 0.0 1.6 0.00 0.00 0.00 80 1015.6
20260905081505 11 0.0 1.6 0.00 0.00 0.00 80 1015.6
20260905081005 11 0.0 1.6 0.00 0.00 0.00 80 1015.6
20260905080505 12 0.0 1.6 0.00 0.00 0.00 80 1015.6
20260905080004 12 0.0 1.6 0.00 0.00 0.00 80 1015.4
20260905075504 12 0.0 1.6 0.00 0.00 0.00 80 1015.4
20260905075004 12 0.0 0.0 0.00 0.00 0.00 80 1015.4
20260905074509 12 0.0 1.6 0.00 0.00 0.00 80 1015.5
20260905074004 12 0.0 1.6 0.00 0.00 0.00 79 1015.5
20260905073503 12 0.0 1.6 0.00 0.00 0.00 79 1015.5
20260905073008 12 0.0 1.6 0.00 0.00 0.00 79 1015.4
20260905072504 12 0.0 0.0 0.00 0.00 0.00 79 1015.5
20260905072024 12 0.0 1.6 0.00 0.03 0.00 79 1015.4
20260905071509 12 0.0 1.6 0.00 0.03 0.00 79 1015.3
20260905071008 12 0.0 1.6 0.00 0.03 0.00 79 1015.2
20260905070503 12 0.0 1.6 0.00 0.03 0.00 79 1015.3
20260905070005 13 0.0 1.6 0.00 0.03 0.03 78 1015.2
20260905065503 13 0.0 1.6 0.00 0.03 0.03 78 1015.1
20260905065004 13 0.0 1.6 0.00 0.03 0.03 78 1015.1
20260905064529 13 0.0 1.6 0.00 0.03 0.03 77 1015.1
20260905064008 13 0.0 1.6 0.00 0.03 0.03 77 1015.1
20260905063503 13 0.0 1.6 0.00 0.03 0.03 76 1015.0
20260905063009 13 0.0 1.6 0.00 0.03 0.03 76 1015.0
20260905062503 13 0.0 1.6 0.00 0.03 0.03 76 1015.1
20260905062003 13 0.0 1.6 0.00 0.03 0.03 76 1015.0
20260905061508 13 0.0 1.6 0.00 0.03 0.03 76 1015.1
20260905061003 14 0.0 1.6 0.00 0.03 0.03 76 1015.0
20260905060528 14 0.0 1.6 0.00 0.05 0.03 75 1015.1
20260905060003 14 0.0 1.6 0.00 0.05 0.03 75 1015.1
20260905055503 14 0.0 1.6 0.00 0.05 0.03 75 1015.2
20260905055009 14 0.0 1.6 0.00 0.05 0.03 75 1015.2
20260905054504 15 0.0 0.0 0.00 0.05 0.03 74 1015.3
20260905054003 15 0.0 0.0 0.00 0.05 0.03 74 1015.2
20260905053503 15 0.0 1.6 0.00 0.05 0.03 74 1015.2
20260905053028 15 0.0 1.6 0.00 0.05 0.03 73 1015.3
20260905052508 15 0.0 1.6 0.00 0.05 0.03 73 1015.3
20260905052003 15 0.0 1.6 0.00 0.05 0.03 73 1015.3
20260905051504 15 0.0 1.6 0.00 0.05 0.03 72 1015.4
20260905051008 15 0.0 1.6 0.00 0.05 0.03 72 1015.4
20260905050509 15 0.0 1.6 0.00 0.05 0.03 71 1015.4
20260905050008 15 0.0 1.6 0.00 0.05 0.03 71 1015.4
20260905045508 16 0.0 1.6 0.00 0.05 0.03 70 1015.4
20260905045023 16 0.0 1.6 0.00 0.05 0.03 70 1015.5
20260905044508 16 0.0 1.6 0.00 0.05 0.03 69 1015.4
20260905044008 16 0.0 1.6 0.00 0.05 0.03 69 1015.4
20260905043508 16 0.0 3.2 0.00 0.05 0.03 69 1015.4
20260905043003 16 0.0 1.6 0.00 0.05 0.03 69 1015.4
20260905042503 16 0.0 1.6 0.00 0.05 0.03 69 1015.3
20260905042008 16 0.0 1.6 0.00 0.05 0.03 69 1015.3
20260905041508 17 0.0 1.6 0.00 0.05 0.03 68 1015.2
20260905041003 17 0.0 1.6 0.00 0.05 0.03 68 1015.3
20260905040528 17 338 1.6 3.2 0.00 0.05 0.03 68 1015.2
20260905040008 17 23 1.6 3.2 0.00 0.05 0.03 67 1015.0
20260905035508 17 0.0 3.2 0.00 0.05 0.03 67 1015.0
20260905035028 17 0 1.6 4.8 0.00 0.05 0.03 67 1014.8
20260905034508 17 0 1.6 3.2 0.00 0.05 0.03 66 1014.8
20260905034009 17 338 1.6 4.8 0.00 0.05 0.03 65 1014.8
20260905033508 17 338 1.6 3.2 0.00 0.05 0.03 65 1014.7
20260905033008 17 338 1.6 4.8 0.00 0.05 0.03 64 1014.6
20260905032506 18 0 1.6 4.8 0.00 0.05 0.03 63 1014.5
20260905032029 18 315 1.6 4.8 0.00 0.05 0.03 63 1014.5
20260905031503 18 0 1.6 4.8 0.00 0.05 0.03 62 1014.4
20260905031008 18 45 1.6 4.8 0.00 0.05 0.03 61 1014.5
20260905030508 18 338 1.6 4.8 0.00 0.05 0.03 61 1014.3
20260905030008 18 338 1.6 6.4 0.00 0.05 0.03 60 1014.4
20260905025508 18 338 1.6 6.4 0.00 0.05 0.03 59 1014.3
20260905025003 19 338 1.6 6.4 0.00 0.05 0.03 59 1014.4
20260905024503 19 338 1.6 8.0 0.00 0.05 0.03 58 1014.4
20260905024008 19 338 3.2 11.3 0.00 0.05 0.03 57 1014.3
20260905023508 20 338 1.6 8.0 0.00 0.05 0.03 57 1014.3
20260905023003 20 338 1.6 4.8 0.00 0.05 0.03 57 1014.3
20260905022508 20 315 1.6 4.8 0.00 0.05 0.03 57 1014.3
20260905022003 20 0 1.6 3.2 0.00 0.05 0.03 58 1014.2
20260905021503 20 23 3.2 8.0 0.00 0.05 0.03 58 1014.3
20260905021008 20 338 3.2 8.0 0.00 0.05 0.03 58 1014.1
20260905020523 21 23 3.2 11.3 0.00 0.05 0.03 57 1013.9
20260905020008 21 23 3.2 8.0 0.00 0.05 0.03 56 1013.9
20260905015508 21 0 3.2 12.9 0.00 0.05 0.03 54 1014.0
20260905015010 21 23 3.2 6.4 0.00 0.05 0.03 55 1014.0
20260905014505 21 0 3.2 9.7 0.00 0.05 0.03 54 1013.9
20260905014005 21 0 3.2 6.4 0.00 0.05 0.03 53 1014.0
20260905013505 22 0 3.2 11.3 0.00 0.05 0.03 52 1013.9
20260905013030 22 338 3.2 11.3 0.00 0.05 0.03 53 1014.0
20260905012509 22 338 3.2 11.3 0.00 0.05 0.03 53 1013.9
20260905012010 22 338 3.2 8.0 0.00 0.05 0.03 52 1014.0
20260905011505 22 315 3.2 6.4 0.00 0.05 0.03 52 1013.9
20260905011010 22 338 4.8 11.3 0.00 0.05 0.03 51 1013.9
20260905010550 22 338 4.8 12.9 0.00 0.05 0.03 49 1013.9
20260905010009 22 23 4.8 12.9 0.00 0.05 0.03 52 1013.8
20260905005505 22 45 3.2 12.9 0.00 0.05 0.03 51 1013.9
20260905005025 22 23 3.2 11.3 0.00 0.05 0.03 48 1013.9
20260905004505 22 45 3.2 11.3 0.00 0.05 0.03 50 1013.8
20260905004030 22 45 4.8 12.9 0.00 0.05 0.03 51 1013.9
20260905003526 22 45 4.8 11.3 0.00 0.05 0.03 50 1014.0
20260905003009 22 45 4.8 11.3 0.00 0.05 0.03 49 1013.8